Location: Arbon
(43.0005°N, 0.7472°E)
Time: 06:16:05
(UTC+00:00)

Tiros 1 - All Passes

Search period start: 27 November 2020 00:00
Search period end: 07 December 2020 00:00
Orbit: 630 x 664 km, 48.4° (Epoch: 26 November)

Date Brightness Start Highest point End Pass type
(mag) Time Alt. Az. Time Alt. Az. Time Alt. Az.
27 Nov - 14:20:36 10° S 14:23:46 18° SE 14:26:57 10° E daylight
27 Nov - 16:00:37 10° SW 16:05:24 74° SSE 16:10:12 10° ENE daylight
27 Nov - 17:43:12 10° W 17:47:51 48° N 17:52:28 10° ENE visible
27 Nov - 19:26:01 10° WNW 19:30:39 48° N 19:35:15 10° E visible
27 Nov - 21:08:21 10° WNW 21:13:06 75° SSW 21:17:47 10° SE night (unlit)
27 Nov - 22:51:38 10° W 22:54:42 17° SW 22:57:46 10° S night (unlit)
28 Nov - 14:45:01 10° SSW 14:49:24 36° SE 14:53:48 10° ENE daylight
28 Nov - 16:26:39 10° WSW 16:31:27 68° NNW 16:36:14 10° ENE daylight
28 Nov - 18:09:34 10° WNW 18:14:10 43° N 18:18:42 10° ENE visible
28 Nov - 19:52:07 10° WNW 19:56:53 65° NNE 20:01:34 10° ESE visible
28 Nov - 21:34:33 10° WNW 21:38:57 39° SW 21:43:18 10° SSE night (unlit)
29 Nov - 13:30:43 10° S 13:33:40 16° SE 13:36:36 10° E daylight
29 Nov - 15:10:28 10° SW 15:15:15 70° SSE 15:20:02 10° ENE daylight
29 Nov - 16:52:59 10° W 16:57:40 49° NNW 17:02:19 10° ENE visible
29 Nov - 18:35:50 10° WNW 18:40:28 47° N 18:45:04 10° E visible
29 Nov - 20:18:10 10° WNW 20:22:57 79° SSW 20:27:39 10° ESE visible
29 Nov - 22:01:18 10° W 22:04:37 19° SW 22:07:53 10° S night (unlit)
30 Nov - 13:54:58 10° SSW 13:59:17 33° SE 14:03:36 10° ENE daylight
30 Nov - 15:36:29 10° WSW 15:41:17 72° NNW 15:46:05 10° ENE daylight
30 Nov - 17:19:23 10° WNW 17:23:57 43° N 17:28:32 10° ENE visible
30 Nov - 19:01:57 10° WNW 19:06:42 62° NNE 19:11:25 10° E visible
30 Nov - 20:44:21 10° WNW 20:48:50 42° SW 20:53:15 10° SSE visible
01 Dec - 12:40:53 10° SSE 12:43:33 15° SE 12:46:14 10° E daylight
01 Dec - 14:20:20 10° SW 14:25:06 65° SSE 14:29:52 10° ENE daylight
01 Dec - 16:02:47 10° W 16:07:28 51° NNW 16:12:10 10° ENE daylight
01 Dec - 17:45:39 10° WNW 17:50:17 46° N 17:54:53 10° E visible
01 Dec - 19:28:00 10° WNW 19:32:48 84° SSW 19:37:32 10° ESE visible
01 Dec - 21:11:00 10° W 21:14:30 21° SW 21:17:58 10° S night (unlit)
02 Dec - 13:04:56 10° SSW 13:09:08 31° SE 13:13:23 10° ENE daylight
02 Dec - 14:46:18 10° WSW 14:51:06 75° NNW 14:55:55 10° ENE daylight
02 Dec - 16:29:10 10° WNW 16:33:46 43° N 16:38:21 10° ENE daylight
02 Dec - 18:11:46 10° WNW 18:16:32 60° NNE 18:21:14 10° E visible
02 Dec - 19:54:09 10° WNW 19:58:42 45° SW 20:03:11 10° SE visible
03 Dec - 11:51:06 10° SSE 11:53:27 14° SE 11:55:48 10° ESE daylight
03 Dec - 13:30:12 10° SW 13:34:56 61° SSE 13:39:42 10° ENE daylight
03 Dec - 15:12:34 10° W 15:17:17 52° NNW 15:21:59 10° ENE daylight
03 Dec - 16:55:27 10° WNW 17:00:05 45° N 17:04:41 10° E visible
03 Dec - 18:37:49 10° WNW 18:42:38 88° SSW 18:47:24 10° ESE visible
03 Dec - 20:20:42 10° W 20:24:24 22° SW 20:28:03 10° S visible
04 Dec - 12:14:54 10° SSW 12:19:01 29° SE 12:23:09 10° E daylight
04 Dec - 13:56:06 10° WSW 14:00:56 79° NNW 14:05:46 10° ENE daylight
04 Dec - 15:38:57 10° WNW 15:43:34 44° N 15:48:11 10° ENE daylight
04 Dec - 17:21:35 10° WNW 17:26:21 58° NNE 17:31:03 10° E visible
04 Dec - 19:03:57 10° WNW 19:08:34 49° SW 19:13:07 10° SE visible
05 Dec - 11:01:24 10° SSE 11:03:21 12° SE 11:05:18 10° ESE daylight
05 Dec - 12:40:05 10° SW 12:44:47 57° SSE 12:49:31 10° ENE daylight
05 Dec - 14:22:22 10° W 14:27:06 54° NNW 14:31:49 10° ENE daylight
05 Dec - 16:05:16 10° WNW 16:09:54 45° N 16:14:30 10° E daylight
05 Dec - 17:47:38 10° WNW 17:52:28 87° NNE 17:57:15 10° ESE visible
05 Dec - 19:30:27 10° W 19:34:17 24° SW 19:38:05 10° S visible
06 Dec - 11:24:53 10° SSW 11:28:53 27° SE 11:32:55 10° E daylight
06 Dec - 13:05:56 10° WSW 13:10:45 83° NNW 13:15:36 10° ENE daylight
06 Dec - 14:48:45 10° WNW 14:53:23 44° N 14:57:59 10° ENE daylight
06 Dec - 16:31:25 10° WNW 16:36:10 56° NNE 16:40:52 10° E daylight
06 Dec - 18:13:45 10° WNW 18:18:25 52° SW 18:23:02 10° SE visible
06 Dec - 19:58:37 10° WSW 19:59:48 11° SW 20:00:58 10° SW visible
